Wind_Speed
4 5 6 7 6 3 1 5 8 11 12 12 12 12 12 13 13 13 14 14 14 14 14 14 14 15 15 15 14 14 13 12 12 11 10 9 9 8 8 7 7 7 6
5 5 4 5 5 4 2 2 5 8 10 11 11 11 11 11 12 13 14 14 14 14 14 13 13 13 14 14 14 14 14 14 13 12 12 11 11 10 9 8 8 8 7
6 6 5 5 4 4 3 1 2 5 7 9 10 11 11 12 12 13 14 15 15 15 15 14 14 14 14 14 15 15 15 15 14 14 14 13 13 12 12 11 10 9 9
7 7 7 7 6 5 4 4 3 3 5 7 8 10 11 12 13 14 14 15 15 16 16 15 15 15 15 15 16 16 15 16 15 15 15 15 15 15 14 13 13 12 11
7 8 8 9 9 8 8 7 6 6 6 6 7 8 9 10 11 12 13 14 15 15 16 16 16 15 16 16 17 17 17 17 17 17 17 17 17 16 16 15 14 13 12
8 8 8 9 10 10 11 11 10 10 9 9 8 8 9 9 10 11 11 12 13 14 15 16 16 16 16 16 17 17 17 17 17 17 16 17 17 16 16 15 14 13 12
9 9 9 9 9 10 12 13 14 14 13 13 12 12 11 11 11 12 12 12 12 13 15 15 16 15 15 16 16 16 16 16 16 16 16 16 16 16 15 15 14 13 11
12 11 11 10 10 10 11 12 14 15 16 16 16 16 15 15 15 15 14 14 14 14 15 16 16 16 16 16 16 17 17 17 17 16 16 17 16 16 15 15 14 13 12
16 15 14 13 13 12 12 12 13 14 16 17 19 19 19 18 18 18 18 18 18 18 18 18 18 18 18 18 18 18 18 18 18 18 18 18 18 17 17 16 15 14 13
20 19 19 18 17 16 15 14 14 14 14 16 17 19 20 21 21 21 21 21 21 22 22 22 22 22 22 21 21 20 20 19 19 19 19 19 19 19 18 17 17 17 16
23 23 22 22 21 21 20 18 17 16 16 16 16 17 18 19 21 22 22 23 24 24 25 25 26 26 26 25 25 24 23 22 22 21 21 21 21 21 21 20 20 20 19
25 25 25 25 24 24 24 23 22 21 20 19 19 19 18 18 19 21 22 23 23 25 26 27 28 29 29 29 29 28 27 27 26 26 25 25 24 24 24 24 24 24 24
24 24 25 25 25 25 25 25 25 25 25 25 24 23 22 21 21 22 22 23 23 23 25 26 28 29 31 31 32 31 31 31 30 30 29 29 28 28 28 28 28 28 28
24 24 24 25 24 24 24 25 25 26 27 28 28 27 27 26 26 26 26 26 25 25 25 26 26 28 29 31 32 33 33 34 33 33 33 32 32 32 32 32 32 32 32
27 26 25 25 25 25 25 25 25 26 26 27 28 29 29 30 30 30 30 30 29 28 28 28 28 28 29 30 31 32 33 34 34 35 35 35 35 35 35 35 35 35 36
30 29 28 26 27 28 28 28 28 28 27 27 27 28 29 30 31 32 33 33 33 33 32 32 31 31 31 31 31 31 32 33 33 34 35 35 36 36 36 36 37 37 37
33 32 31 30 30 30 31 31 32 31 31 30 29 29 30 30 31 32 33 34 36 36 36 35 35 34 34 34 33 32 32 33 33 34 35 36 36 37 37 37 37 37 37
36 35 35 34 33 33 33 34 34 34 34 33 33 33 33 33 33 33 34 35 37 37 37 38 37 37 37 37 36 35 34 34 34 35 36 37 38 39 39 38 38 37 37
37 37 38 37 37 36 36 36 36 36 36 35 36 36 36 36 37 36 37 38 39 39 39 39 38 39 40 40 39 38 37 36 36 36 37 38 39 40 40 39 38 38 37
38 38 39 39 39 39 38 37 37 37 37 37 37 38 38 39 40 41 40 41 41 40 40 40 40 41 41 41 41 41 40 39 39 38 39 40 41 41 41 41 40 39 38
39 39 39 39 39 39 39 39 39 39 39 39 40 40 40 41 42 43 44 44 43 42 43 42 42 42 42 42 43 43 43 42 41 41 41 42 43 43 43 42 42 40 39
41 40 40 40 40 40 41 40 40 41 42 42 42 42 42 43 44 45 46 46 46 45 46 46 45 45 44 44 46 46 45 44 43 43 44 44 45 45 45 44 44 42 41
44 44 44 44 44 44 44 44 44 44 44 44 44 44 44 44 45 46 48 49 48 48 48 49 48 48 47 47 48 49 48 46 46 46 47 46 46 47 47 46 46 45 43
46 47 47 48 48 48 49 49 49 49 49 49 48 48 48 48 48 49 49 50 51 50 51 51 51 50 50 50 51 52 52 51 50 49 49 49 49 49 49 49 48 47 46
46 47 49 50 52 53 53 54 54 54 54 54 54 53 53 53 53 53 53 53 54 54 54 54 53 52 53 53 53 54 55 55 53 53 52 52 53 52 52 51 50 50 49
49 50 52 54 55 57 58 59 59 59 59 59 59 59 59 58 58 58 58 58 58 58 58 58 57 56 56 56 56 57 57 57 57 56 56 55 55 56 55 55 54 53 52
Wind_Direction
347 6 17 23 29 40 171 210 215 217 218 219 221 222 220 219 220 220 218 215 215 215 216 219 223 227 229 230 230 230 230 233 236 238 241 243 244 244 244 244 246 249 251
310 323 343 359 11 21 43 182 204 211 214 217 219 221 221 222 222 222 221 218 217 216 217 218 221 226 229 232 233 234 234 237 240 242 246 250 250 251 252 252 252 254 256
294 294 298 306 322 339 349 335 221 216 215 216 219 222 224 227 228 228 227 224 223 223 224 225 229 233 237 239 241 241 241 242 244 245 249 252 253 253 253 253 253 252 254
303 290 283 279 279 284 290 293 282 259 240 230 226 225 227 229 232 233 233 232 232 234 236 237 239 241 244 247 249 249 249 249 248 248 248 250 251 251 250 250 250 250 250
326 305 288 276 269 267 267 267 267 266 262 255 246 239 236 235 236 237 237 236 236 239 243 244 245 245 246 249 251 252 252 252 252 250 248 247 247 247 246 245 244 244 244
330 321 308 291 276 266 262 261 260 259 259 259 257 253 249 248 247 246 244 242 240 241 244 246 247 247 247 247 249 251 251 250 250 248 245 244 243 242 242 240 239 238 238
319 317 314 308 295 279 267 261 259 258 257 257 257 256 253 253 254 253 251 249 247 245 245 246 248 248 247 246 246 247 249 249 249 246 244 243 241 239 240 239 237 236 231
306 305 304 301 299 294 284 272 264 260 258 257 257 256 255 253 254 255 254 253 252 250 249 248 248 249 249 248 247 248 249 249 250 249 247 245 242 240 239 238 236 232 225
296 295 294 293 290 288 286 284 277 270 265 261 258 257 257 256 256 256 256 256 255 254 252 251 250 250 250 250 250 250 250 250 250 249 249 248 246 243 241 238 237 233 227
289 288 287 286 286 285 283 281 280 278 275 270 265 262 260 259 259 258 258 258 257 257 256 255 254 254 253 253 253 253 253 252 252 251 250 250 249 247 244 240 239 238 235
286 285 284 282 282 282 282 281 279 278 276 276 274 271 267 265 264 263 262 261 260 259 259 258 258 257 257 256 256 256 256 256 256 254 253 252 250 249 247 245 244 243 243
287 285 282 280 280 280 280 279 278 276 275 273 272 272 271 270 269 269 268 266 264 263 262 261 261 260 260 260 259 259 259 259 259 258 256 255 253 252 251 250 249 249 249
287 284 281 279 278 278 277 277 277 276 275 274 272 271 271 270 271 271 271 270 269 268 267 265 264 263 263 262 262 262 262 262 262 262 261 259 258 257 256 256 256 256 256
286 283 281 279 278 277 276 276 275 275 275 274 273 272 271 270 269 269 270 271 271 270 269 268 267 266 265 265 264 263 264 265 265 265 264 264 263 262 261 261 261 260 260
287 285 282 281 280 277 276 275 274 273 273 272 272 272 271 270 268 268 268 269 270 270 269 269 268 267 267 267 266 265 265 265 266 267 267 267 266 266 265 265 264 264 264
287 286 284 282 279 277 276 274 272 271 271 271 270 269 269 269 270 269 269 269 269 268 268 268 268 268 268 268 268 267 267 267 268 269 269 270 269 269 268 268 268 267 267
287 286 285 282 279 277 275 273 271 270 268 268 267 267 267 267 267 268 268 268 268 268 267 267 267 267 267 267 267 268 268 268 269 269 270 270 270 270 270 270 270 270 270
286 285 284 282 280 278 276 274 272 270 268 266 265 264 264 264 264 264 265 266 267 268 268 268 267 267 267 267 267 266 266 267 267 268 269 269 269 270 270 270 271 272 272
283 282 281 280 279 278 276 275 274 272 270 267 264 262 261 261 262 261 261 263 265 267 268 269 268 267 266 266 266 266 266 266 266 266 267 268 268 269 269 269 270 270 271
281 280 280 279 278 277 275 273 273 272 271 270 267 263 261 260 261 260 260 261 263 266 267 268 268 267 266 267 267 266 266 265 265 266 266 267 268 268 268 268 269 270 271
279 279 279 278 277 275 274 272 271 271 270 271 270 267 264 261 260 261 261 261 262 264 265 265 266 266 267 267 267 267 266 266 267 268 268 268 268 268 268 268 269 270 271
279 278 277 277 276 274 273 271 270 269 268 268 269 269 267 265 263 262 261 261 261 261 262 264 265 266 266 267 267 267 268 268 269 269 269 269 270 269 269 268 268 269 270
277 277 277 276 275 274 272 271 270 269 267 266 266 266 266 266 265 263 263 263 262 262 262 264 265 267 267 266 267 268 269 270 269 269 269 269 269 269 269 269 268 268 269
274 274 274 274 273 272 272 271 270 269 268 266 265 265 265 265 265 264 264 264 264 263 263 264 265 266 267 268 268 268 269 268 268 268 268 269 269 269 268 268 267 267 268
275 273 272 271 271 270 270 269 269 268 268 267 266 265 265 264 265 265 264 264 265 264 264 264 264 265 266 266 267 268 268 269 270 270 269 269 268 267 267 267 267 267 266
278 276 274 273 271 270 269 269 268 268 267 266 266 266 265 264 263 263 263 263 263 263 263 263 263 263 264 265 266 267 268 270 270 270 270 269 268 268 268 267 267 266 266
Height
5860 5859 5858 5857 5856 5856 5856 5856 5857 5859 5860 5861 5863 5864 5865 5867 5868 5869 5870 5871 5872 5873 5874 5875 5876 5877 5878 5879 5879 5880 5881 5882 5883 5884 5884 5885 5886 5886 5887 5888 5888 5889 5889
5860 5859 5859 5858 5858 5857 5857 5857 5857 5858 5859 5860 5862 5863 5864 5866 5867 5868 5869 5870 5871 5872 5873 5874 5875 5876 5877 5878 5878 5879 5880 5881 5882 5883 5883 5884 5885 5886 5886 5887 5888 5888 5889
5860 5859 5859 5859 5859 5859 5858 5858 5858 5859 5859 5860 5861 5862 5863 5864 5865 5866 5867 5869 5870 5871 5872 5873 5874 5875 5876 5877 5877 5878 5879 5880 5881 5881 5882 5883 5884 5884 5885 5886 5886 5887 5888
5859 5859 5859 5859 5859 5859 5859 5859 5859 5859 5860 5860 5860 5861 5862 5863 5864 5865 5866 5868 5869 5870 5871 5872 5873 5874 5875 5875 5876 5877 5878 5879 5880 5880 5881 5882 5882 5883 5884 5884 5885 5885 5886
5859 5858 5858 5858 5859 5859 5859 5859 5859 5859 5860 5860 5860 5861 5861 5862 5863 5864 5865 5866 5867 5868 5869 5870 5872 5872 5873 5874 5875 5875 5876 5877 5878 5879 5880 5880 5880 5881 5881 5882 5883 5883 5884
5858 5858 5857 5857 5857 5858 5858 5858 5859 5859 5859 5859 5859 5860 5860 5861 5861 5862 5863 5864 5865 5866 5867 5868 5870 5871 5871 5872 5873 5874 5874 5875 5876 5877 5878 5878 5878 5879 5879 5880 5881 5881 5882
5858 5857 5857 5856 5856 5856 5856 5857 5857 5857 5858 5858 5858 5859 5859 5860 5860 5861 5861 5862 5863 5864 5865 5866 5867 5868 5869 5870 5871 5872 5872 5873 5874 5875 5876 5876 5876 5877 5877 5878 5879 5879 5880
5857 5856 5856 5855 5855 5854 5854 5854 5855 5855 5856 5856 5857 5857 5858 5858 5859 5859 5860 5861 5861 5862 5863 5864 5865 5866 5867 5868 5869 5870 5870 5871 5872 5873 5873 5874 5874 5875 5875 5876 5877 5877 5878
5855 5854 5854 5853 5853 5853 5853 5853 5853 5853 5853 5853 5854 5855 5855 5856 5857 5858 5858 5859 5859 5860 5861 5862 5863 5864 5864 5865 5866 5867 5868 5868 5869 5870 5871 5871 5872 5872 5873 5874 5874 5875 5876
5851 5851 5851 5851 5851 5851 5851 5851 5851 5851 5851 5851 5851 5851 5852 5853 5854 5854 5855 5856 5857 5857 5858 5859 5860 5860 5861 5862 5863 5863 5864 5865 5866 5867 5867 5868 5868 5869 5870 5871 5872 5873 5874
5847 5847 5847 5847 5847 5848 5848 5848 5848 5848 5848 5848 5848 5848 5848 5849 5849 5850 5851 5852 5853 5854 5854 5855 5856 5857 5857 5858 5859 5860 5861 5861 5862 5863 5863 5864 5864 5865 5866 5867 5868 5869 5870
5842 5842 5842 5843 5843 5843 5843 5844 5844 5844 5844 5844 5844 5844 5844 5845 5845 5846 5846 5847 5848 5849 5850 5850 5851 5852 5853 5854 5855 5856 5857 5857 5858 5859 5859 5860 5860 5861 5862 5863 5864 5865 5866
5837 5837 5836 5837 5837 5838 5838 5838 5838 5839 5839 5839 5839 5839 5839 5840 5840 5841 5841 5842 5843 5843 5844 5845 5846 5846 5847 5849 5850 5851 5852 5852 5853 5854 5854 5855 5856 5856 5857 5858 5859 5860 5861
5831 5831 5831 5831 5832 5832 5832 5832 5833 5833 5833 5833 5833 5833 5833 5834 5834 5834 5835 5836 5837 5837 5838 5839 5839 5840 5841 5842 5843 5844 5846 5847 5847 5848 5848 5849 5850 5851 5851 5853 5854 5855 5855
5826 5826 5826 5826 5826 5826 5826 5827 5826 5826 5826 5826 5826 5826 5827 5827 5828 5828 5828 5828 5829 5830 5831 5832 5833 5833 5834 5835 5836 5837 5839 5839 5840 5841 5841 5842 5843 5844 5845 5846 5847 5848 5849
5820 5820 5820 5820 5820 5819 5820 5820 5820 5820 5820 5820 5820 5819 5819 5820 5820 5820 5821 5821 5822 5822 5823 5824 5825 5826 5826 5827 5829 5830 5831 5832 5832 5833 5834 5835 5836 5836 5837 5838 5839 5840 5841
5813 5813 5813 5813 5812 5812 5812 5812 5812 5812 5813 5813 5813 5812 5812 5812 5812 5812 5813 5813 5813 5814 5815 5815 5816 5817 5818 5819 5820 5821 5822 5823 5824 5825 5826 5826 5827 5828 5829 5830 5831 5831 5832
5806 5806 5805 5804 5804 5804 5803 5803 5803 5804 5804 5804 5804 5804 5804 5804 5804 5804 5804 5804 5804 5805 5806 5807 5808 5808 5809 5810 5811 5812 5813 5815 5815 5816 5817 5818 5819 5820 5821 5822 5823 5823 5824
5797 5796 5796 5795 5795 5795 5795 5794 5794 5794 5794 5794 5795 5795 5795 5795 5794 5795 5795 5795 5795 5796 5797 5798 5799 5799 5800 5801 5802 5803 5804 5805 5806 5807 5808 5809 5810 5811 5812 5813 5814 5815 5816
5788 5787 5786 5786 5786 5785 5785 5785 5785 5785 5784 5784 5784 5785 5785 5785 5785 5785 5785 5786 5786 5787 5787 5788 5788 5789 5790 5791 5792 5793 5795 5796 5796 5798 5798 5799 5800 5801 5802 5803 5805 5806 5807
5779 5778 5778 5777 5777 5776 5776 5776 5775 5775 5775 5775 5775 5774 5775 5775 5775 5774 5775 5776 5776 5777 5777 5777 5778 5779 5780 5781 5781 5782 5784 5785 5787 5788 5788 5788 5789 5790 5792 5793 5794 5796 5797
5769 5768 5768 5768 5767 5767 5766 5766 5765 5765 5765 5765 5765 5764 5764 5764 5764 5764 5764 5764 5765 5766 5766 5767 5767 5768 5769 5771 5771 5770 5772 5775 5777 5777 5777 5778 5779 5779 5781 5782 5783 5785 5786
5759 5758 5757 5757 5756 5756 5756 5756 5755 5754 5754 5754 5754 5754 5753 5753 5753 5753 5752 5752 5753 5754 5755 5755 5756 5757 5758 5760 5759 5760 5761 5764 5765 5766 5766 5767 5768 5769 5769 5770 5771 5773 5775
5748 5747 5746 5745 5744 5744 5743 5743 5743 5743 5742 5742 5742 5742 5741 5741 5740 5740 5740 5740 5740 5742 5742 5742 5743 5745 5745 5747 5747 5748 5749 5751 5753 5754 5755 5756 5756 5757 5758 5758 5760 5761 5763
5735 5734 5733 5732 5731 5730 5729 5729 5729 5729 5729 5728 5728 5728 5729 5728 5727 5727 5727 5727 5727 5728 5728 5728 5729 5730 5731 5732 5733 5734 5734 5736 5739 5741 5742 5744 5744 5745 5745 5746 5748 5749 5751
5720 5720 5719 5718 5717 5716 5715 5714 5713 5713 5713 5713 5713 5713 5713 5713 5713 5713 5713 5713 5713 5713 5713 5713 5714 5715 5716 5717 5718 5719 5720 5721 5723 5726 5727 5729 5730 5731 5733 5734 5735 5736 5738